Palma de Mallorca, Spain

2:03 AM CET on February 20, 2017 (GMT +0100)
Palma De Mallorca

Weather History for LEPA - March, 2013

Change the Weather History Date:

Saturday, March 2, 2013

  Actual Average Record
Temperature  
Mean Temperature 53 °F -  
Max Temperature 62 °F 62 °F 71 °F (2007)
Min Temperature 42 °F 41 °F 33 °F (2004)
Degree Days  
Heating Degree Days 12    
Growing Degree Days 3 (Base 50)    
Moisture  
Dew Point 41 °F    
Average Humidity 62    
Maximum Humidity 93    
Minimum Humidity 39    
Precipitation  
Precipitation 0.00 in 0.05 in - ()
Sea Level Pressure  
Sea Level Pressure 30.01 in    
Wind  
Wind Speed 13 mph ()    
Max Wind Speed 24 mph    
Max Gust Speed 37 mph    
Visibility 6.6 miles    
Events      
Averages and records for this station are not official NWS values.
T = Trace of Precipitation, MM = Missing Value Source: Averaged Metar Reports

Daily Weather History Graph

Daily Weather History Graph

Search for Another Location

Airport or City:

Trip Planner

Search our weather history database for the weather conditions in past years. The results will help you decide how hot, cold, wet, or windy it might be!

Date:

Astronomy

Mar. 02, 2013 Rise Set
Actual Time 7:20 AM CET 6:42 PM CET
Civil Twilight 6:53 AM CET 7:09 PM CET
Nautical Twilight 6:22 AM CET 7:40 PM CET
Astronomical Twilight 5:51 AM CET 8:11 PM CET
Moon No Moon Rise 9:38 AM CET (3/2)
Length of Visible Light 12h 15m
Length of Day
11h 21m
Waning Gibbous, 76% of the Moon is Illuminated
Mar 2
Waning Gibbous
Mar 4
Last Quarter
Mar 11
New
Mar 19
First Quarter
Mar 27
Full

Hourly Weather History & Observations

Time (CET) Temp. Windchill Dew Point Humidity Pressure Visibility Wind Dir Wind Speed Gust Speed Precip Events Conditions
12:00 AM 53.6 °F - 44.6 °F 72% 29.86 in 6.2 mi North 21.9 mph 34.5 mph N/A   Scattered Clouds
12:30 AM 53.6 °F - 44.6 °F 72% 29.86 in 6.2 mi North 23.0 mph 35.7 mph N/A   Scattered Clouds
1:00 AM 53 °F - 40 °F 51% 29.87 in 12 mi North 20.7 mph - -   Partly Cloudy
1:00 AM 53.6 °F - 44.6 °F 72% 29.86 in 6.2 mi NNE 18.4 mph 32.2 mph N/A   Scattered Clouds
1:30 AM 53.6 °F - 42.8 °F 67% 29.86 in 6.2 mi NNE 23.0 mph - N/A   Partly Cloudy
2:00 AM 53.6 °F - 42.8 °F 67% 29.89 in 6.2 mi NNE 24.2 mph 36.8 mph N/A   Partly Cloudy
2:30 AM 53.6 °F - 42.8 °F 67% 29.89 in 6.2 mi NNE 20.7 mph - N/A   Partly Cloudy
3:00 AM 55.4 °F - 42.8 °F 63% 29.89 in 6.2 mi NNE 18.4 mph - N/A   Partly Cloudy
3:30 AM 53.6 °F - 42.8 °F 67% 29.89 in 6.2 mi NNE 18.4 mph - N/A   Partly Cloudy
4:00 AM 53.6 °F - 42.8 °F 67% 29.92 in 6.2 mi NNE 19.6 mph - N/A   Partly Cloudy
4:30 AM 53.6 °F - 42.8 °F 67% 29.92 in 6.2 mi NNE 18.4 mph - N/A   Partly Cloudy
5:00 AM 53.6 °F - 41.0 °F 62% 29.92 in 6.2 mi NNE 16.1 mph - N/A   Partly Cloudy
5:30 AM 53.6 °F - 39.2 °F 58% 29.95 in 6.2 mi NNE 15.0 mph - N/A   Partly Cloudy
6:00 AM 51.8 °F - 41.0 °F 67% 29.95 in 6.2 mi NNE 11.5 mph - N/A   Partly Cloudy
6:30 AM 51.8 °F - 41.0 °F 67% 29.95 in 6.2 mi NE 11.5 mph - N/A   Partly Cloudy
7:00 AM 49 °F - 36 °F 51% 29.99 in 12 mi NNE 5.8 mph - -   Scattered Clouds
7:30 AM 50.0 °F - 39.2 °F 66% 29.98 in 6.2 mi NE 5.8 mph - N/A   Partly Cloudy
8:00 AM 50.0 °F - 39.2 °F 66% 29.98 in 6.2 mi NNE 6.9 mph - N/A   Partly Cloudy
8:30 AM 51.8 °F - 39.2 °F 62% 30.01 in 6.2 mi North 8.1 mph - N/A   Partly Cloudy
9:00 AM 53.6 °F - 39.2 °F 58% 30.01 in 6.2 mi NNE 6.9 mph - N/A   Partly Cloudy
9:30 AM 55.4 °F - 37.4 °F 51% 30.01 in 6.2 mi NNE 11.5 mph - N/A   Partly Cloudy
10:00 AM 57.2 °F - 35.6 °F 44% 30.04 in 6.2 mi NNE 10.4 mph - N/A   Partly Cloudy
10:30 AM 59.0 °F - 39.2 °F 48% 30.04 in 6.2 mi NE 9.2 mph - N/A   Partly Cloudy
11:00 AM 59.0 °F - 39.2 °F 48% 30.04 in 6.2 mi NNE 9.2 mph - N/A   Partly Cloudy
11:30 AM 59.0 °F - 42.8 °F 55% 30.04 in 6.2 mi NE 11.5 mph - N/A   Partly Cloudy
12:00 PM 59.0 °F - 42.8 °F 55% 30.04 in 6.2 mi ENE 10.4 mph - N/A   Partly Cloudy
12:30 PM 60.8 °F - 42.8 °F 52% 30.06 in 6.2 mi ENE 10.4 mph - N/A   Scattered Clouds
1:00 PM 60.8 °F - 42.8 °F 52% 30.06 in 6.2 mi ENE 11.5 mph - N/A   Scattered Clouds
1:30 PM 62.6 °F - 44.6 °F 52% 30.04 in 6.2 mi NE 8.1 mph - N/A   Partly Cloudy
2:00 PM 60.8 °F - 41.0 °F 48% 30.04 in 6.2 mi NE 8.1 mph - N/A   Partly Cloudy
2:30 PM 62.6 °F - 42.8 °F 48% 30.04 in 6.2 mi ENE 9.2 mph - N/A   Partly Cloudy
3:00 PM 62.6 °F - 37.4 °F 39% 30.04 in 6.2 mi ENE 10.4 mph - N/A   Partly Cloudy
3:30 PM 62.6 °F - 39.2 °F 42% 30.04 in 6.2 mi ENE 9.2 mph - N/A   Partly Cloudy
4:00 PM 62.6 °F - 39.2 °F 42% 30.04 in 6.2 mi ENE 9.2 mph - N/A   Partly Cloudy
4:30 PM 60.8 °F - 41.0 °F 48% 30.04 in 6.2 mi East 10.4 mph - N/A   Partly Cloudy
5:00 PM 60.8 °F - 41.0 °F 48% 30.04 in 6.2 mi East 10.4 mph - N/A   Partly Cloudy
5:30 PM 59.0 °F - 37.4 °F 45% 30.06 in 6.2 mi ENE 8.1 mph - N/A   Partly Cloudy
6:00 PM 57.2 °F - 41.0 °F 55% 30.06 in 6.2 mi ENE 5.8 mph - N/A   Partly Cloudy
6:30 PM 55.4 °F - 41.0 °F 58% 30.06 in - East 3.5 mph - N/A   Clear
7:00 PM 52 °F - 39 °F 51% 30.08 in 12 mi East 2.3 mph - -   Scattered Clouds
7:00 PM 53.6 °F - 42.8 °F 67% 30.06 in 6.2 mi East 2.3 mph - N/A   Partly Cloudy
7:30 PM 51.8 °F - 42.8 °F 71% 30.09 in - NNW 1.2 mph - N/A   Clear
8:00 PM 51.8 °F - 44.6 °F 76% 30.09 in - NE 2.3 mph - N/A   Clear
8:30 PM 50.0 °F - 42.8 °F 76% 30.09 in - NE 3.5 mph - N/A   Clear
9:00 PM 46.4 °F - 42.8 °F 87% 30.09 in - ENE 2.3 mph - N/A   Clear
9:30 PM 46.4 °F 45.2 °F 42.8 °F 87% 30.12 in - ENE 3.5 mph - N/A   Clear
10:00 PM 44.6 °F - 41.0 °F 87% 30.12 in - Variable 2.3 mph - N/A   Clear
10:30 PM 44.6 °F - 41.0 °F 87% 30.12 in - NE 2.3 mph - N/A   Clear
11:00 PM 44.6 °F - 41.0 °F 87% 30.12 in - NNE 2.3 mph - N/A   Clear
11:30 PM 42.8 °F 41.1 °F 41.0 °F 93% 30.09 in - NE 3.5 mph - N/A   Clear